Flag for Russia Weather past 2 weeks in Surgut, Russia

Now
23 °F

Low clouds.


Feels Like: 16 °F
Forecast: 14 / 23 °F
Wind: 6 mph from Northwest

Location: Surgut Airport

Current Time: Feb 28, 2015 at 3:49:13 AM

Latest Report: Feb 28, 2015 at 3:30 AM


Visibility: 4 mi

Pressure: 30.24 "Hg

Humidity: 93%

Dew point: 21 °F

Location of SurgutLocation

Historic Weather in Surgut — Graph

°F

Surgut temperature yesterday

Maximum temperature yesterday: 32 °F (at 7:00 AM)
Minimum temperature yesterday: 27 °F (at 9:00 PM)
Average temperature yesterday: 31 °F

Past Weeks' High & Low Weather Summary

 TemperatureHumidityPressure
High32 °F (Feb 24, 11:30 AM)100% (Feb 13, 7:30 PM)30.27 "Hg (Feb 13, 7:30 PM)
Low-35 °F (Feb 18, 3:00 AM)52% (Feb 20, 10:30 PM)29.06 "Hg (Feb 13, 7:30 PM)
Average9 °F82%29.91 "Hg
* Reported Feb 13 2:00 AM — Feb 28 2:30 AM, Surgut, Weather by CustomWeather, © 2015

Note: Actual official high and low records may vary slightly from our data, if they occured in-between our weather recording intervals... More about our weather records

Advertising

Surgut weather history for previous 24 hours

 ConditionsComfort  
Time TempWeatherWind HumidityBarometerVisibility
2:30 AM
Sat, Feb 28
25 °FLow clouds.8 mph93%30.21 "Hg4 mi
2:00 AM25 °FPartly cloudy.8 mph93%30.21 "Hg4 mi
1:30 AM27 °FPartly cloudy.8 mph93%30.18 "Hg4 mi
1:00 AM28 °FOvercast.8 mph86%30.18 "Hg4 mi
12:30 AM28 °FLow clouds.8 mph93%30.18 "Hg4 mi
12:00 AM28 °FLow clouds.10 mph93%30.15 "Hg4 mi
11:30 PM
Fri, Feb 27
30 °FLow clouds.10 mph93%30.15 "Hg4 mi
11:00 PM30 °FIce fog.8 mph93%30.15 "Hg3 mi
10:30 PM30 °FLow clouds.8 mph93%30.12 "Hg4 mi
10:00 PM28 °FLight snow. Ice fog.6 mph100%30.12 "Hg2 mi
9:30 PM30 °FLight snow. Ice fog.6 mph93%30.12 "Hg2 mi
9:00 PM27 °FLight snow. Low clouds.3 mph100%30.12 "Hg3 mi
8:30 PM28 °FLight snow. Mostly cloudy.3 mph100%30.12 "Hg3 mi
8:00 PM28 °FLight snow. Mostly cloudy.3 mph100%30.09 "Hg2 mi
7:30 PM28 °FLight snow. Mostly cloudy.3 mph93%30.09 "Hg2 mi
7:00 PM30 °FLight snow. Mostly cloudy.1 mph93%30.09 "Hg4 mi
6:30 PM30 °FLight snow. Mostly cloudy.1 mph93%30.09 "Hg3 mi
6:00 PM30 °FLight snow. More clouds than sun.1 mph100%30.09 "Hg3 mi
5:30 PM30 °FSnow flurries. Broken clouds.3 mph100%30.09 "Hg2 mi
5:00 PM30 °FSnow flurries. Broken clouds.1 mph100%30.09 "Hg2 mi
4:30 PM32 °FSnow flurries. Broken clouds.3 mph93%30.09 "Hg2 mi
4:00 PM32 °FSnow flurries. Broken clouds.1 mph93%30.09 "Hg2 mi
3:30 PM32 °FSnow flurries. Broken clouds.3 mph93%30.09 "Hg2 mi
3:00 PM32 °FSnow flurries. Broken clouds.6 mph93%30.09 "Hg2 mi
2:30 PM32 °FSnow flurries. Broken clouds.3 mph93%30.09 "Hg2 mi
2:00 PM32 °FSnow showers. Broken clouds.6 mph93%30.09 "Hg1 mi
1:30 PM32 °FSnow flurries. Broken clouds.6 mph93%30.09 "Hg3 mi
1:00 PM32 °FSnow flurries. Broken clouds.6 mph93%30.09 "Hg4 mi
12:30 PM32 °FSnow flurries. Broken clouds.6 mph93%30.09 "Hg2 mi
12:00 PM32 °FLow clouds.6 mph93%30.09 "Hg4 mi
11:30 AM32 °FLow clouds.6 mph93%30.09 "Hg4 mi
11:00 AM32 °FLow clouds.6 mph93%30.09 "Hg4 mi
10:30 AM32 °FLow clouds.6 mph93%30.09 "Hg4 mi
10:00 AM32 °FLow clouds.6 mph93%30.07 "Hg4 mi
9:30 AM32 °FLow clouds.6 mph93%30.09 "Hg4 mi
8:30 AM32 °FLow clouds.6 mph93%30.09 "Hg4 mi
8:00 AM30 °FIce fog.3 mph100%30.07 "Hg3 mi
7:30 AM32 °FIce fog.6 mph93%30.09 "Hg3 mi
7:00 AM32 °FIce fog.6 mph93%30.07 "Hg2 mi
6:30 AM30 °FIce fog.6 mph100%30.07 "Hg2 mi
6:00 AM30 °FIce fog.6 mph100%30.07 "Hg2 mi
5:30 AM30 °FIce fog.6 mph100%30.07 "Hg2 mi
5:00 AM30 °FSnow flurries. Ice fog.6 mph100%30.07 "Hg2 mi
4:30 AM30 °FSnow flurries. Ice fog.6 mph100%30.09 "Hg2 mi
4:00 AM30 °FSnow flurries. Partly cloudy.3 mph93%30.09 "Hg3 mi
3:30 AM30 °FSnow flurries. Partly cloudy.6 mph93%30.09 "Hg3 mi
3:00 AM30 °FSnow flurries. Partly cloudy.3 mph93%30.09 "Hg3 mi
Weather by CustomWeather, © 2015

See weather overviewHow to use our weather pages